TimeCST,TemperatureF,Dew PointF,Humidity,Sea Level PressureIn,VisibilityMPH,Wind Direction,Wind SpeedMPH,Gust SpeedMPH,PrecipitationIn,Events,Conditions,WindDirDegrees,DateUTC
12:53 AM,3.0,-0.0,87,30.35,10.0,Calm,Calm,-,N/A,,Clear,0,2013-03-07 06:53:00
1:13 AM,-2.2,-5.8,85,30.29,1.5,Calm,Calm,-,N/A,,Clear,0,2013-03-07 07:13:00
1:18 AM,-2.2,-2.2,100,30.29,0.5,Calm,Calm,-,N/A,Fog,Light Freezing Fog,0,2013-03-07 07:18:00
1:53 AM,-2.0,-5.1,87,30.35,0.8,Calm,Calm,-,N/A,,Mist,0,2013-03-07 07:53:00
2:14 AM,-2.2,-4.0,92,30.28,2.0,SSE,3.5,-,N/A,,Clear,160,2013-03-07 08:14:00
2:22 AM,-0.4,-2.2,92,30.28,7.0,SSE,4.6,-,N/A,,Clear,150,2013-03-07 08:22:00
2:53 AM,7.0,3.0,84,30.33,10.0,SE,9.2,-,N/A,,Clear,130,2013-03-07 08:53:00
3:53 AM,6.1,1.9,83,30.31,10.0,SE,8.1,-,N/A,,Clear,130,2013-03-07 09:53:00
4:53 AM,6.1,1.9,83,30.31,10.0,SE,6.9,-,N/A,,Clear,130,2013-03-07 10:53:00
5:53 AM,6.1,1.9,83,30.31,10.0,SE,4.6,-,N/A,,Scattered Clouds,130,2013-03-07 11:53:00
6:53 AM,1.9,-0.9,88,30.31,10.0,SSE,5.8,-,N/A,,Scattered Clouds,160,2013-03-07 12:53:00
7:53 AM,6.1,3.0,87,30.32,10.0,Calm,Calm,-,N/A,,Mostly Cloudy,0,2013-03-07 13:53:00
8:53 AM,9.0,5.0,84,30.30,10.0,SE,6.9,-,N/A,,Scattered Clouds,130,2013-03-07 14:53:00
9:53 AM,12.9,9.0,84,30.30,10.0,SE,8.1,-,N/A,,Scattered Clouds,140,2013-03-07 15:53:00
10:53 AM,18.0,12.0,78,30.29,10.0,SE,12.7,-,N/A,,Scattered Clouds,140,2013-03-07 16:53:00
11:53 AM,21.0,14.0,74,30.28,10.0,SSE,16.1,-,N/A,,Mostly Cloudy,150,2013-03-07 17:53:00
12:53 PM,24.1,17.1,75,30.26,10.0,SSE,20.7,-,N/A,,Mostly Cloudy,150,2013-03-07 18:53:00
1:53 PM,25.0,18.0,75,30.24,10.0,SE,17.3,-,N/A,,Overcast,140,2013-03-07 19:53:00
2:53 PM,26.1,19.0,75,30.22,10.0,SE,15.0,-,N/A,,Mostly Cloudy,140,2013-03-07 20:53:00
3:53 PM,27.0,18.0,69,30.22,10.0,SSE,15.0,-,N/A,,Mostly Cloudy,150,2013-03-07 21:53:00
4:53 PM,26.1,18.0,71,30.22,10.0,SSE,8.1,-,N/A,,Scattered Clouds,160,2013-03-07 22:53:00
5:53 PM,21.0,16.0,81,30.23,10.0,South,4.6,-,N/A,,Scattered Clouds,170,2013-03-07 23:53:00
6:53 PM,14.0,10.0,84,30.23,10.0,SSW,5.8,-,N/A,,Scattered Clouds,200,2013-03-08 00:53:00
7:53 PM,19.9,15.1,81,30.23,10.0,South,6.9,-,N/A,,Overcast,170,2013-03-08 01:53:00
8:28 PM,21.2,15.8,80,30.17,10.0,South,8.1,-,N/A,,Overcast,170,2013-03-08 02:28:00
8:53 PM,23.0,17.1,78,30.22,10.0,South,10.4,-,N/A,,Overcast,180,2013-03-08 02:53:00
9:53 PM,24.1,19.0,81,30.22,10.0,South,13.8,-,N/A,,Overcast,190,2013-03-08 03:53:00
10:53 PM,24.1,19.0,81,30.22,10.0,South,13.8,-,N/A,,Overcast,190,2013-03-08 04:53:00
11:53 PM,24.8,19.4,80,30.16,10.0,South,13.8,-,N/A,,Overcast,190,2013-03-08 05:53:00